Lid_Strength_Index
4 4 3 3 3 2 2 2 2 2 3 3 4 4 4 4 4 4 3 1 3 4 4 4 3 4 4 4 6 5 5 5 5 7 8 8 8 7 8 8 9 9 10 9 9 11 13 5 5 8 6 4 4 4
4 4 4 3 3 2 2 2 2 2 2 3 4 4 4 4 4 4 4 1 1 4 3 2 3 2 2 2 4 3 5 5 5 6 6 6 7 6 8 10 6 9 7 9 8 9 5 4 5 4 4 4 4 4
4 4 4 3 2 2 2 2 2 2 2 3 3 4 4 4 5 5 3 2 2 3 3 3 3 2 1 2 1 5 3 3 3 3 5 5 8 6 8 8 7 6 5 6 7 6 5 5 4 3 3 4 3 3
4 4 4 4 3 3 3 2 2 2 2 3 3 3 4 4 5 5 4 2 2 3 6 4 2 3 1 1 2 2 2 2 2 3 5 5 6 4 6 7 7 6 5 7 7 6 5 4 4 3 3 3 3 3
4 5 4 3 3 3 2 2 2 2 3 3 3 3 4 4 4 4 3 1 1 5 6 5 4 2 1 2 2 2 2 3 3 5 5 6 4 5 4 4 6 5 7 7 10 5 6 5 3 3 4 4 3 3
5 5 4 3 3 3 2 2 2 2 3 3 3 3 3 4 5 2 3 1 0 2 6 6 3 3 2 2 2 3 2 2 3 4 4 4 4 5 7 8 5 4 4 4 6 4 4 3 3 3 3 3 3 3
5 5 4 3 3 3 3 3 3 3 3 3 4 4 4 4 2 3 4 3 4 2 5 7 6 3 2 3 2 2 2 2 3 3 4 4 5 4 6 7 6 4 4 4 3 3 5 4 4 3 3 2 2 2
5 4 3 3 3 3 3 3 3 3 3 3 3 3 4 4 4 2 2 4 4 3 4 7 7 5 2 4 5 1 4 3 4 5 4 5 5 5 7 6 5 4 4 4 4 3 3 3 3 3 2 2 3 3
5 4 3 3 3 3 3 3 3 3 3 3 3 3 1 1 2 1 3 4 0 2 5 6 9 11 3 4 4 4 3 7 3 6 5 4 6 9 7 6 5 4 4 4 3 3 3 4 3 3 3 3 3 3
4 3 3 3 3 3 3 3 3 3 3 3 2 2 4 1 4 2 1 3 3 3 3 5 5 8 5 5 6 6 4 7 9 7 4 6 7 5 5 4 4 4 3 3 4 5 4 5 4 4 3 3 3 3
4 3 3 3 3 3 3 3 3 3 2 1 2 3 0 1 1 3 6 6 5 7 5 5 5 8 4 8 9 5 8 6 9 9 8 9 9 7 4 4 3 3 3 3 3 3 3 3 4 3 3 2 2 2
3 3 3 3 3 3 3 3 3 2 2 4 5 3 0 3 5 7 8 6 7 9 6 8 6 5 5 4 7 6 8 8 11 6 9 10 8 5 4 4 3 3 3 3 2 3 3 3 3 2 2 2 2 2
3 3 3 3 3 3 3 3 3 3 3 1 2 4 4 4 12 10 11 8 9 6 6 7 8 5 4 5 7 7 9 10 6 8 9 9 6 4 4 3 3 2 3 2 2 2 2 3 2 2 2 2 1 2
3 3 3 3 3 3 3 3 3 3 2 3 5 12 7 9 7 8 7 6 4 5 5 5 6 6 5 6 7 9 7 7 10 11 11 8 6 4 3 2 3 3 3 3 2 2 3 3 2 2 2 1 1 2
3 3 3 3 4 3 3 3 3 1 1 4 4 11 7 3 3 4 4 4 4 4 5 5 5 5 7 8 7 8 10 11 9 11 9 6 4 3 3 3 3 3 2 3 2 2 2 2 2 2 2 1 1 1
3 4 2 4 3 3 4 3 1 -0 1 4 4 6 4 5 6 6 5 6 2 4 4 5 7 8 8 7 9 9 10 11 9 7 6 5 4 3 3 3 2 2 2 2 2 2 2 2 2 2 2 2 1 1
4 1 4 4 4 4 3 2 0 3 4 5 5 2 4 4 5 5 4 5 3 4 8 6 9 9 5 8 9 6 8 6 4 4 3 3 3 3 2 2 2 2 2 2 2 2 2 2 2 2 2 3 1 1
2 1 3 4 4 2 1 1 2 3 6 4 5 5 2 3 4 3 4 2 3 5 5 6 5 8 9 10 9 6 5 4 3 3 3 3 2 2 2 2 2 2 2 2 2 2 2 3 3 2 3 2 1 2
3 2 3 4 4 3 3 2 1 6 4 3 3 3 3 3 2 2 2 2 2 2 4 5 7 7 8 5 5 5 4 4 5 4 3 2 2 2 2 2 2 2 2 3 2 2 3 2 3 2 2 2 3 2
4 4 3 4 4 2 4 3 0 4 6 5 3 4 4 3 3 3 3 3 3 4 6 7 7 5 6 5 4 4 3 3 4 5 4 3 2 2 2 2 2 2 2 2 2 4 3 3 2 2 3 3 2 3
4 3 3 2 1 2 2 3 3 3 3 4 3 3 4 3 5 5 5 3 5 5 6 6 5 3 2 2 2 2 3 3 4 4 4 4 2 2 2 1 1 2 2 3 4 3 4 3 2 2 2 2 2 3
2 4 2 2 3 4 3 2 3 3 4 4 4 4 6 6 5 5 3 5 6 5 3 4 3 3 3 3 2 2 2 2 2 2 4 3 3 3 2 2 2 3 3 3 3 3 2 2 2 2 2 2 3 2
3 2 3 4 6 6 7 1 5 4 7 6 5 6 5 5 5 3 6 5 4 2 2 2 2 2 3 2 2 2 1 2 3 3 3 3 2 2 2 2 2 3 3 3 2 2 2 4 2 1 1 1 1 1
6 4 6 6 6 8 3 5 4 4 5 6 7 8 6 6 4 5 7 5 3 2 2 2 2 2 2 2 3 3 2 2 2 2 2 3 3 3 3 3 2 2 3 2 2 2 1 2 4 2 1 1 1 2
8 8 8 11 5 6 7 7 7 5 8 7 7 7 6 4 7 7 7 5 4 4 3 2 3 3 4 4 3 3 1 2 2 3 3 2 3 3 3 2 2 3 2 2 2 2 2 1 1 1 1 2 2 2
11 7 9 6 6 7 7 8 8 8 7 8 7 5 5 6 8 8 6 4 4 3 3 3 3 3 4 3 4 4 3 2 2 3 3 2 2 3 3 3 3 2 0 0 1 1 1 1 1 1 1 2 6 2
11 7 4 2 4 5 6 5 5 6 8 8 6 7 6 9 9 7 4 3 3 1 2 1 2 3 3 4 3 3 2 1 2 2 2 1 1 1 2 2 3 2 1 1 0 0 1 1 1 1 1 1 1 2
6 5 7 5 5 4 7 7 7 8 7 5 6 8 9 8 8 4 3 1 0 0 1 1 1 1 2 2 2 2 2 1 1 1 1 0 -0 0 0 1 1 6 1 1 0 0 0 1 1 1 1 2 2 2
6 4 4 6 6 6 6 6 6 5 3 5 7 7 6 3 3 3 3 2 1 1 2 2 2 1 2 2 2 1 2 1 3 4 4 4 3 2 0 1 1 0 -0 0 8 4 2 2 2 2 2 2 2 1
5 3 6 6 7 7 5 4 4 3 3 4 4 4 4 3 2 1 1 1 2 2 2 2 1 1 3 3 3 2 1 1 1 2 3 4 3 1 1 1 0 0 -0 -0 1 2 7 4 4 2 2 2 3 3
2 4 5 5 6 4 4 3 3 2 2 3 3 4 5 4 3 1 2 1 1 2 2 2 2 2 2 3 3 3 3 1 1 1 0 1 1 1 0 -0 0 0 1 1 1 2 2 2 2 2 3 3 3 4
4 5 5 7 6 3 2 3 3 4 4 4 4 4 3 5 6 3 1 1 2 2 3 2 3 3 2 1 1 2 10 1 0 0 0 0 0 -0 -1 -0 -0 0 1 1 1 1 2 2 2 3 3 3 3 3
4 3 4 5 5 6 4 4 5 6 5 6 5 4 4 5 6 3 -0 -0 1 2 2 1 1 0 0 1 1 2 4 2 6 11 10 10 10 6 2 0 1 1 1 2 2 2 3 3 3 3 3 3 3 2